Location: La Trinit�
(48.1620°N, 3.4512°W)
Time: 17:15:47
(UTC+00:00)

Cosmos 1470 Rocket - Pass Details

Date: 08 May 2021
Orbit: 603 x 634 km, 82.5° (Epoch: 21 June)

Event Time Altitude Azimuth Distance (km) Brightness Sun altitude
Rises 21:30:54 0° 351° (N) 2,936 8.1 -15.5°
Reaches altitude 10° 21:33:09 10° 353° (N) 2,026 7.1 -15.7°
Maximum altitude 21:37:39 79° 80° (E) 652 3.5 -16.2°
Enters shadow 21:39:58 28° 164° (SSE) 1,183 4.5 -16.4°
